West Palm Beach, FL

4:18 AM EST on December 16, 2017 (GMT -0500)
Palm Beach International

Weather History for KPBI - July, 2013

Change the Weather History Date:

Sunday, July 28, 2013

  Actual Average Record
Temperature  
Mean Temperature 82 °F 83 °F  
Max Temperature 87 °F 90 °F 97 °F (1950)
Min Temperature 76 °F 76 °F 69 °F (1921)
Degree Days  
Heating Degree Days 0 0  
Month to date heating degree days 0 0  
Since 1 June heating degree days 0 0  
Since 1 July heating degree days 0 0  
Cooling Degree Days 17 18  
Month to date cooling degree days 515 493  
Year to date cooling degree days 2189 2092  
Since 1 June cooling degree days 1004 983  
Growing Degree Days 32 (Base 50)    
Moisture  
Dew Point 73 °F    
Average Humidity 74    
Maximum Humidity 82    
Minimum Humidity 65    
Precipitation  
Precipitation 0.11 in 0.17 in 1.95 in (1915)
Month to date precipitation 5.84 5.22  
Year to date precipitation 43.52 32.23  
Snow  
Snow 0.00 in - - ()
Month to date snowfall 0.0  
Since 1 June snowfall 0.0  
Since 1 July snowfall 0.0  
Snow Depth 0.00 in    
Sea Level Pressure  
Sea Level Pressure 30.02 in    
Wind  
Wind Speed 4 mph (SSW)    
Max Wind Speed 16 mph    
Max Gust Speed 22 mph    
Visibility 10 miles    
Events Rain , Thunderstorm , Tornado    
T = Trace of Precipitation, MM = Missing Value Source: NWS Daily Summary

Daily Weather History Graph

Daily Weather History Graph

Search for Another Location

Airport or City:

Trip Planner

Search our weather history database for the weather conditions in past years. The results will help you decide how hot, cold, wet, or windy it might be!

Date:

Astronomy

Jul. 28, 2013 Rise Set
Actual Time 6:43 AM EDT 8:10 PM EDT
Civil Twilight 6:18 AM EDT 8:35 PM EDT
Nautical Twilight 5:48 AM EDT 9:05 PM EDT
Astronomical Twilight 5:16 AM EDT 9:36 PM EDT
Moon No Moon Rise 12:40 PM EDT (7/28)
Length of Visible Light 14h 17m
Length of Day
13h 26m
Waning Gibbous, 61% of the Moon is Illuminated
Jul 28
Waning Gibbous
Jul 29
Last Quarter
Aug 6
New
Aug 14
First Quarter
Aug 20
Full

Hourly Weather History & Observations

Time (EDT) Temp. Heat Index Dew Point Humidity Pressure Visibility Wind Dir Wind Speed Gust Speed Precip Events Conditions
12:53 AM 80.1 °F 83.8 °F 72.0 °F 76% 29.99 in 10.0 mi South 4.6 mph - N/A   Mostly Cloudy
1:47 AM 80.6 °F 84.6 °F 71.6 °F 74% 29.97 in 10.0 mi SW 5.8 mph - N/A Thunderstorm Thunderstorm
1:53 AM 80.1 °F 83.8 °F 72.0 °F 76% 29.97 in 10.0 mi SSW 5.8 mph - N/A Thunderstorm Thunderstorm
2:53 AM 80.1 °F 84.2 °F 73.0 °F 79% 29.96 in 10.0 mi SSW 5.8 mph - N/A Thunderstorm Thunderstorm
3:39 AM 80.6 °F 85.4 °F 73.4 °F 79% 29.96 in 10.0 mi South 4.6 mph - N/A   Scattered Clouds
3:53 AM 80.1 °F 84.2 °F 73.0 °F 79% 29.96 in 10.0 mi SSW 5.8 mph - N/A   Scattered Clouds
4:53 AM 79.0 °F - 71.1 °F 77% 29.96 in 10.0 mi SSW 5.8 mph - N/A   Scattered Clouds
5:53 AM 78.1 °F - 72.0 °F 81% 29.96 in 10.0 mi West 3.5 mph - N/A   Scattered Clouds
6:53 AM 78.1 °F - 72.0 °F 81% 29.98 in 10.0 mi SW 3.5 mph - N/A   Mostly Cloudy
7:53 AM 79.0 °F - 72.0 °F 79% 30.01 in 10.0 mi SSW 3.5 mph - N/A   Mostly Cloudy
8:53 AM 82.9 °F 89.4 °F 73.9 °F 74% 30.01 in 10.0 mi SSW 6.9 mph - N/A   Mostly Cloudy
9:53 AM 86.0 °F 93.8 °F 73.9 °F 67% 30.02 in 10.0 mi Calm Calm - N/A   Mostly Cloudy
10:34 AM 86.0 °F 93.4 °F 73.4 °F 66% 30.03 in 10.0 mi West 4.6 mph - N/A Thunderstorm Thunderstorm
10:41 AM 86.0 °F 93.4 °F 73.4 °F 66% 30.04 in 10.0 mi West 5.8 mph - N/A Thunderstorm , Tornado Funnel Cloud
10:44 AM 86.0 °F 93.4 °F 73.4 °F 66% 30.04 in 10.0 mi WSW 5.8 mph - N/A Thunderstorm Thunderstorm
10:53 AM 86.0 °F 92.2 °F 72.0 °F 63% 30.03 in 10.0 mi SSW 4.6 mph - N/A Thunderstorm Thunderstorm
11:53 AM 82.0 °F 85.9 °F 70.0 °F 67% 30.06 in 10.0 mi South 13.8 mph 21.9 mph N/A Thunderstorm Thunderstorm
12:08 PM 80.6 °F 83.2 °F 68.0 °F 65% 30.07 in 10.0 mi SW 13.8 mph 20.7 mph N/A Thunderstorm Thunderstorm
12:53 PM 77.0 °F - 69.8 °F 78% 30.04 in 7.0 mi WSW 3.5 mph - 0.00 in Rain , Thunderstorm Light Thunderstorms and Rain
1:53 PM 77.0 °F - 71.1 °F 82% 30.06 in 7.0 mi WNW 4.6 mph - 0.07 in Rain , Thunderstorm Light Thunderstorms and Rain
2:10 PM 77.0 °F - 71.6 °F 83% 30.04 in 7.0 mi NW 3.5 mph - 0.02 in Rain Light Rain
2:53 PM 79.0 °F - 72.0 °F 79% 30.04 in 10.0 mi Calm Calm - 0.04 in Rain Light Rain
3:53 PM 82.0 °F 87.4 °F 73.0 °F 74% 30.02 in 10.0 mi Calm Calm - 0.00 in   Mostly Cloudy
4:53 PM 84.0 °F 90.2 °F 73.0 °F 69% 30.01 in 10.0 mi Calm Calm - N/A   Mostly Cloudy
5:53 PM 84.9 °F 92.1 °F 73.9 °F 69% 30.01 in 10.0 mi ESE 6.9 mph - N/A   Mostly Cloudy
6:53 PM 86.0 °F 93.8 °F 73.9 °F 67% 30.02 in 10.0 mi ESE 8.1 mph - N/A   Mostly Cloudy
7:53 PM 84.0 °F 91.2 °F 73.9 °F 72% 30.04 in 10.0 mi East 4.6 mph - N/A   Mostly Cloudy
8:53 PM 84.0 °F 91.9 °F 75.0 °F 74% 30.06 in 10.0 mi East 4.6 mph - N/A   Mostly Cloudy
9:53 PM 84.0 °F 91.2 °F 73.9 °F 72% 30.07 in 10.0 mi Calm Calm - N/A   Mostly Cloudy
10:53 PM 82.0 °F 87.9 °F 73.9 °F 76% 30.07 in 10.0 mi South 3.5 mph - N/A   Mostly Cloudy
11:53 PM 82.0 °F 87.9 °F 73.9 °F 76% 30.06 in 10.0 mi South 3.5 mph - N/A   Mostly Cloudy